Hourly Data Report for January 19, 2022

MIRAMICHI RCS
NEW BRUNSWICK
Current Station Operator: ECCC - MSC

47°00'34.000" N
65°27'54.000" W
33.00 m
8100989
71744
ACQ

Download Data

Hourly Data (January 2022)
Hourly Data Report for January 19, 2022
TIME
LST
Temp Definition
°C
Dew Point Definition
°C
Rel Hum Definition
%
Precip. Amount Definition
mm

Wind Dir Definition
10's deg

Wind Spd Definition
km/h
Visibility Definition
km
Stn Press Definition
kPa
Hmdx Definition


Wind Chill Definition


Weather Definition


00:00 -15.7 -22.2 57 0.0 28 24   99.92   -26 LegendNANA
01:00 -16.6 -23.0 58 0.0 27 22   100.10   -27 LegendNANA
02:00 -17.2 -23.7 57 0.0 27 22   100.24   -27 LegendNANA
03:00 -17.6 -24.4 55 0.0 28 25   100.44   -29 LegendNANA
04:00 -17.9 -24.8 55 0.0 27 15   100.58   -26 LegendNANA
05:00 -18.0 -25.1 54 0.0 29 15   100.67   -27 LegendNANA
06:00 -19.9 -25.1 64 0.0 23 15   100.85   -29 LegendNANA
07:00 -20.0 -25.4 62 0.0 24 15   101.00   -29 LegendNANA
08:00 -20.1 -25.3 63 0.0 25 16   101.20   -30 LegendNANA
09:00 -19.3 -25.0 61 0.0 25 18   101.30   -29 LegendNANA
10:00 -18.3 -24.7 57 0.0 24 17   101.37   -28 LegendNANA
11:00 -17.1 -24.4 53 0.0 26 20   101.38   -27 LegendNANA
12:00 -16.5 -23.9 53 0.0 26 19   101.35   -26 LegendNANA
13:00 -15.5 -23.4 51 0.0 25 15   101.25   -24 LegendNANA
14:00 -14.9 -22.5 53 0.0 24 10   101.21   -21 LegendNANA
15:00 -15.1 -18.4 76 0.0 23 10   101.17   -21 LegendNANA
16:00 -15.3 -17.7 82 0.6 23 9   101.21   -21 LegendNANA
17:00 -15.4 -17.9 81 0.4 22 6   101.12   -20 LegendNANA
18:00 -15.1 -17.5 82 0.2 14 5   101.06   -19 LegendNANA
19:00 -14.9 -17.2 82 0.3 7 4   101.03   -18 LegendNANA
20:00 -14.6 -16.6 85 0.0 8 5   100.94   -18 LegendNANA
21:00 -14.3 -16.0 87 0.3 34 3   100.84   -16 LegendNANA
22:00 -14.0 -15.6 88 0.0 33 4   100.75   -17 LegendNANA
23:00 -13.8 -15.6 86 0.2 29 5   100.66   -17 LegendNANA

Notes on Data Quality.

Legend

  • E = Estimated
  • M = Missing
  • NA = Not Available*
  • [empty] = Indicates an unobserved value
Date modified: